TimeMDT,TemperatureF,Dew PointF,Humidity,Sea Level PressureIn,VisibilityMPH,Wind Direction,Wind SpeedMPH,Gust SpeedMPH,PrecipitationIn,Events,Conditions,WindDirDegrees,DateUTC
12:15 AM,64.4,37.4,37,29.73,10.0,South,16.1,27.6,N/A,,Clear,190,2013-09-25 06:15:00
12:35 AM,64.4,37.4,37,29.72,10.0,South,18.4,27.6,N/A,,Clear,180,2013-09-25 06:35:00
12:55 AM,64.4,37.4,37,29.72,10.0,South,16.1,25.3,N/A,,Clear,180,2013-09-25 06:55:00
1:15 AM,64.4,37.4,37,29.71,10.0,South,16.1,27.6,N/A,,Clear,180,2013-09-25 07:15:00
1:35 AM,64.4,37.4,37,29.71,10.0,South,18.4,25.3,N/A,,Clear,190,2013-09-25 07:35:00
1:55 AM,64.4,37.4,37,29.72,10.0,SSW,16.1,24.2,N/A,,Clear,200,2013-09-25 07:55:00
2:15 AM,64.4,37.4,37,29.71,10.0,South,10.4,21.9,N/A,,Clear,190,2013-09-25 08:15:00
2:35 AM,64.4,37.4,37,29.71,10.0,SSW,13.8,23.0,N/A,,Clear,210,2013-09-25 08:35:00
2:55 AM,62.6,37.4,39,29.72,10.0,SW,8.1,-,N/A,,Clear,230,2013-09-25 08:55:00
3:15 AM,62.6,37.4,39,29.72,10.0,South,11.5,-,N/A,,Clear,190,2013-09-25 09:15:00
3:35 AM,62.6,35.6,37,29.71,10.0,South,12.7,-,N/A,,Clear,190,2013-09-25 09:35:00
3:55 AM,62.6,35.6,37,29.71,10.0,South,12.7,-,N/A,,Clear,190,2013-09-25 09:55:00
4:15 AM,62.6,37.4,39,29.70,10.0,South,11.5,16.1,N/A,,Clear,180,2013-09-25 10:15:00
4:35 AM,60.8,37.4,42,29.70,10.0,SSW,11.5,-,N/A,,Clear,210,2013-09-25 10:35:00
4:55 AM,60.8,35.6,39,29.71,10.0,SW,8.1,-,N/A,,Clear,220,2013-09-25 10:55:00
5:15 AM,60.8,37.4,42,29.70,10.0,SW,8.1,-,N/A,,Clear,220,2013-09-25 11:15:00
5:35 AM,59.0,37.4,45,29.71,10.0,WSW,4.6,-,N/A,,Clear,240,2013-09-25 11:35:00
5:55 AM,59.0,37.4,45,29.70,10.0,Calm,Calm,-,N/A,,Clear,0,2013-09-25 11:55:00
6:15 AM,59.0,37.4,45,29.69,10.0,SSW,3.5,-,N/A,,Clear,200,2013-09-25 12:15:00
6:35 AM,55.4,37.4,51,29.68,10.0,SSE,6.9,-,N/A,,Clear,160,2013-09-25 12:35:00
6:55 AM,53.6,37.4,54,29.68,10.0,Calm,Calm,-,N/A,,Clear,0,2013-09-25 12:55:00
7:15 AM,55.4,37.4,51,29.68,10.0,Calm,Calm,-,N/A,,Clear,0,2013-09-25 13:15:00
7:35 AM,55.4,39.2,54,29.67,10.0,Calm,Calm,-,N/A,,Clear,0,2013-09-25 13:35:00
7:55 AM,55.4,41.0,58,29.67,10.0,Calm,Calm,-,N/A,,Clear,0,2013-09-25 13:55:00
8:15 AM,59.0,39.2,48,29.67,10.0,Calm,Calm,-,N/A,,Clear,0,2013-09-25 14:15:00
8:35 AM,59.0,39.2,48,29.67,10.0,Calm,Calm,-,N/A,,Clear,0,2013-09-25 14:35:00
8:55 AM,59.0,41.0,51,29.68,10.0,North,-9999.0,-,N/A,,Clear,0,2013-09-25 14:55:00
9:15 AM,60.8,41.0,48,29.69,10.0,North,-9999.0,-,N/A,,Clear,0,2013-09-25 15:15:00
9:35 AM,60.8,42.8,52,29.69,10.0,North,10.4,-,N/A,,Clear,10,2013-09-25 15:35:00
9:55 AM,62.6,42.8,48,29.69,10.0,North,9.2,-,N/A,,Clear,10,2013-09-25 15:55:00
10:15 AM,60.8,41.0,48,29.69,10.0,North,11.5,-,N/A,,Clear,360,2013-09-25 16:15:00
10:35 AM,60.8,41.0,48,29.69,10.0,North,6.9,-,N/A,,Clear,360,2013-09-25 16:35:00
10:55 AM,60.8,42.8,52,29.68,10.0,North,8.1,-,N/A,,Clear,10,2013-09-25 16:55:00
11:15 AM,60.8,42.8,52,29.66,10.0,NNE,4.6,-,N/A,,Clear,20,2013-09-25 17:15:00
11:35 AM,60.8,42.8,52,29.66,10.0,NNE,8.1,-,N/A,,Clear,20,2013-09-25 17:35:00
12:15 PM,60.8,44.6,55,29.65,10.0,North,10.4,-,N/A,,Clear,360,2013-09-25 18:15:00
12:55 PM,62.6,44.6,52,29.64,10.0,NNE,6.9,-,N/A,,Clear,30,2013-09-25 18:55:00
1:15 PM,60.8,44.6,55,29.63,10.0,NNE,6.9,-,N/A,,Clear,30,2013-09-25 19:15:00
1:35 PM,60.8,44.6,55,29.62,10.0,NNE,11.5,-,N/A,,Clear,30,2013-09-25 19:35:00
1:55 PM,60.8,44.6,55,29.61,10.0,NNE,11.5,-,N/A,,Clear,30,2013-09-25 19:55:00
2:15 PM,60.8,44.6,55,29.61,10.0,NNE,13.8,-,N/A,,Clear,20,2013-09-25 20:15:00
2:35 PM,60.8,44.6,55,29.59,10.0,North,-9999.0,-,N/A,,Clear,0,2013-09-25 20:35:00
2:55 PM,60.8,44.6,55,29.59,10.0,NNE,10.4,16.1,N/A,,Clear,30,2013-09-25 20:55:00
3:15 PM,60.8,44.6,55,29.58,10.0,NNE,11.5,-,N/A,,Clear,20,2013-09-25 21:15:00
3:35 PM,60.8,44.6,55,29.58,10.0,NE,11.5,-,N/A,,Clear,40,2013-09-25 21:35:00
3:55 PM,60.8,46.4,59,29.57,10.0,North,-9999.0,-,N/A,,Clear,0,2013-09-25 21:55:00
4:15 PM,60.8,44.6,55,29.58,10.0,NNE,8.1,-,N/A,,Scattered Clouds,30,2013-09-25 22:15:00
4:35 PM,59.0,44.6,59,29.58,10.0,North,13.8,18.4,N/A,,Mostly Cloudy,10,2013-09-25 22:35:00
4:55 PM,59.0,44.6,59,29.62,10.0,North,-9999.0,-,N/A,,Overcast,0,2013-09-25 22:55:00
5:15 PM,59.0,44.6,59,29.59,10.0,North,-9999.0,-,N/A,,Overcast,0,2013-09-25 23:15:00
5:35 PM,57.2,46.4,67,29.61,10.0,North,-9999.0,-,N/A,,Overcast,0,2013-09-25 23:35:00
5:55 PM,55.4,48.2,77,29.58,10.0,NNE,9.2,-,N/A,Rain,Light Rain,30,2013-09-25 23:55:00
6:15 PM,55.4,46.4,72,29.59,10.0,NNE,11.5,-,N/A,,Scattered Clouds,30,2013-09-26 00:15:00
6:35 PM,55.4,46.4,72,29.61,10.0,North,8.1,-,N/A,,Mostly Cloudy,360,2013-09-26 00:35:00
6:55 PM,55.4,46.4,72,29.62,10.0,NNE,8.1,-,N/A,,Scattered Clouds,30,2013-09-26 00:55:00
7:15 PM,53.6,46.4,77,29.64,10.0,NNW,8.1,-,N/A,,Light Drizzle,340,2013-09-26 01:15:00
7:35 PM,53.6,48.2,82,29.65,4.0,NNW,8.1,-,N/A,Rain,Heavy Rain,340,2013-09-26 01:35:00
7:55 PM,51.8,48.2,88,29.66,10.0,NNW,10.4,-,N/A,Rain,Light Rain,340,2013-09-26 01:55:00
8:15 PM,50.0,46.4,87,29.65,10.0,North,10.4,-,N/A,Rain,Light Rain,360,2013-09-26 02:15:00
8:35 PM,50.0,46.4,87,29.66,10.0,North,13.8,21.9,N/A,Rain-Thunderstorm,Light Thunderstorms and Rain,350,2013-09-26 02:35:00
8:55 PM,50.0,46.4,87,29.66,10.0,North,10.4,-,N/A,Rain-Thunderstorm,Light Thunderstorms and Rain,350,2013-09-26 02:55:00
9:15 PM,50.0,46.4,87,29.67,10.0,North,8.1,-,N/A,Rain-Thunderstorm,Light Thunderstorms and Rain,360,2013-09-26 03:15:00
9:35 PM,48.2,46.4,93,29.69,10.0,NNW,3.5,-,N/A,Rain-Thunderstorm,Rain,340,2013-09-26 03:35:00
9:55 PM,48.2,46.4,93,29.68,10.0,NNW,8.1,-,N/A,Rain,Light Rain,340,2013-09-26 03:55:00
10:15 PM,48.2,46.4,93,29.69,10.0,NNW,5.8,-,N/A,,Overcast,330,2013-09-26 04:15:00
10:35 PM,46.4,46.4,100,29.70,10.0,NNW,8.1,-,N/A,,Overcast,340,2013-09-26 04:35:00
10:55 PM,46.4,46.4,100,29.69,10.0,North,6.9,-,N/A,Rain,Rain,10,2013-09-26 04:55:00
11:15 PM,46.4,46.4,100,29.66,10.0,North,6.9,-,N/A,,Light Drizzle,10,2013-09-26 05:15:00
11:35 PM,46.4,46.4,100,29.67,10.0,NNE,4.6,-,N/A,,Overcast,30,2013-09-26 05:35:00
11:55 PM,46.4,46.4,100,29.67,10.0,North,4.6,-,N/A,,Overcast,350,2013-09-26 05:55:00